This is the latest recevied weather packets stored in our database for station/object EA1L-13. If no packets are shown the sender has not sent any weather packets the latest 10 day(s).
| Time | Temp. | Humidity | Pressure | Rain* | Wind** | Luminosity | Snow |
|---|---|---|---|---|---|---|---|
| 1778292004 | 10.56° C | 100% | 1006.5 hPa | 0 mm | - | - | - |
| 1778291104 | 10° C | 100% | 1006.6 hPa | 0 mm | - | - | - |
| 1778290205 | 10.56° C | 100% | 1006.7 hPa | 0 mm | - | - | - |
| 1778289305 | 10.56° C | 100% | 1006.8 hPa | 0 mm | - | - | - |
| 1778288404 | 10.56° C | 100% | 1007 hPa | 0 mm | - | - | - |
| 1778287504 | 10.56° C | 100% | 1007 hPa | 0 mm | - | - | - |
| 1778286604 | 11.11° C | 100% | 1007.1 hPa | 0 mm | - | - | - |
| 1778285704 | 11.11° C | 100% | 1007.3 hPa | 0 mm | - | - | - |
| 1778284804 | 11.11° C | 100% | 1007.5 hPa | 0 mm | - | - | - |
| 1778283904 | 11.67° C | 100% | 1007.7 hPa | 0 mm | - | - | - |
| 1778283004 | 11.67° C | 100% | 1007.7 hPa | 0 mm | - | - | - |
| 1778282104 | 11.67° C | 100% | 1007.6 hPa | 0 mm | - | - | - |
| 1778281204 | 11.67° C | 100% | 1007.8 hPa | 0 mm | - | - | - |
| 1778280304 | 11.67° C | 100% | 1007.8 hPa | 0 mm | - | - | - |
| 1778279405 | 11.67° C | 100% | 1008 hPa | 0 mm | - | - | - |
| 1778278504 | 11.67° C | 100% | 1008 hPa | 0 mm | - | - | - |
| 1778277604 | 11.67° C | 100% | 1008.3 hPa | 0 mm | - | - | - |
| 1778276704 | 11.67° C | 100% | 1008.4 hPa | 0 mm | - | - | - |
| 1778275820 | 11.11° C | 100% | 1008.5 hPa | 0 mm | - | - | - |
| 1778274904 | 11.67° C | 100% | 1008.6 hPa | 0 mm | - | - | - |
| 1778274004 | 11.67° C | 100% | 1008.6 hPa | 0 mm | - | - | - |
| 1778273104 | 12.22° C | 100% | 1008.6 hPa | 0 mm | - | - | - |
| 1778272205 | 12.22° C | 100% | 1008.6 hPa | 0 mm | - | - | - |
| 1778271304 | 11.67° C | 100% | 1008.5 hPa | 0 mm | - | - | - |
| 1778270405 | 11.67° C | 100% | 1008.3 hPa | 0 mm | - | - | - |
* Rain latest hour (hover to see other rain measurements)
** Current wind speed in m/s (hover to see current wind gust speed)